NOAA 21 (JPSS-2)

Last updated on Sat Aug 15 2026 00:02:40 GMT+0000 (Coordinated Universal Time)

1 54234U 22150A 26226.53664036 -.00000008 00000+0 16763-4 0 9994 2 54234 98.7067 164.3473 0002613 51.0804 309.0605 14.19545054194820
UTC large
Height (km)
Speed (km/s)
/
Latitude / Longitude
Inclination (degrees)
Orbital Period (minutes)
Azimuth
Elevation
Range (km)
Doppler Factor

Next 0 passes for location: London (51.5072 / 0.1276)

No passes found over London.
NOAA 21 (JPSS-2)